CDT,Max TemperatureF,Mean TemperatureF,Min TemperatureF,Max Dew PointF,MeanDew PointF,Min DewpointF,Max Humidity, Mean Humidity, Min Humidity, Max Sea Level PressureIn, Mean Sea Level PressureIn, Min Sea Level PressureIn, Max VisibilityMiles, Mean VisibilityMiles, Min VisibilityMiles, Max Wind SpeedMPH, Mean Wind SpeedMPH, Max Gust SpeedMPH,PrecipitationIn, CloudCover, Events, WindDirDegrees
2013-8-1,88,74,62,72,66,59,100,85,39,30.10,30.05,29.92,10,6,0,13,2,,0.68,2,Fog-Rain-Thunderstorm,158
2013-8-2,82,74,66,72,68,62,100,79,65,30.01,29.90,29.80,10,10,4,21,9,30,0.31,5,Rain-Thunderstorm,94
2013-8-3,84,73,64,70,65,60,90,75,58,30.14,30.06,29.96,10,10,10,10,7,,0.00,3,,58
2013-8-4,75,68,64,68,64,59,100,81,73,30.15,30.09,30.01,10,10,7,12,7,17,0.00,7,Rain,114
2013-8-5,82,75,68,74,71,66,100,88,74,30.05,29.93,29.83,10,8,4,9,4,,0.00,5,,150
2013-8-6,89,78,68,76,72,68,100,88,63,29.90,29.82,29.77,10,6,0,13,3,,0.00,3,Fog,134
2013-8-7,86,78,69,74,70,62,100,82,51,29.96,29.88,29.78,10,9,2,10,3,,0.00,2,,347
2013-8-8,78,70,63,68,65,62,97,86,71,30.00,29.98,29.93,10,10,9,8,2,,0.01,2,Rain,69
2013-8-9,82,74,66,69,66,63,100,81,58,30.11,30.04,30.00,10,10,9,6,3,,0.00,2,,352
2013-8-10,82,70,59,67,62,58,96,73,49,30.20,30.14,30.08,10,10,10,10,4,,0.00,0,,122
2013-8-11,86,72,60,69,65,59,96,75,53,30.12,30.06,29.98,10,10,9,9,5,,0.00,0,,182
2013-8-12,84,76,66,73,70,66,100,88,63,30.04,30.00,29.94,10,8,3,15,3,18,0.26,4,Rain-Thunderstorm,320
2013-8-13,80,72,63,66,62,60,97,76,50,30.14,30.09,30.04,10,10,9,8,3,,0.01,1,,34
2013-8-14,78,67,57,63,60,56,93,76,54,30.19,30.13,30.07,10,10,10,8,3,,0.00,1,,114
2013-8-15,68,64,60,63,60,56,100,89,68,30.15,30.09,30.02,10,6,0,15,8,20,1.84,8,Fog-Rain-Thunderstorm,123
2013-8-16,75,68,62,63,61,59,93,81,64,30.17,30.13,30.07,10,10,10,10,5,,0.00,7,Rain,97
2013-8-17,78,66,55,62,59,55,100,83,54,30.20,30.16,30.10,10,7,0,8,1,,0.00,1,Fog,131
2013-8-18,80,66,53,65,58,54,100,89,56,30.17,30.13,30.06,10,5,0,9,1,,0.01,1,Fog,152
2013-8-19,84,71,60,70,65,59,97,79,60,30.08,30.02,29.96,10,9,3,13,6,18,0.00,1,,171
2013-8-20,88,78,68,72,68,65,90,75,57,30.01,29.97,29.92,10,10,7,15,9,21,0.00,1,,183
2013-8-21,89,80,70,75,70,65,96,76,57,30.02,29.98,29.94,10,10,5,13,8,,0.00,0,,178
2013-8-22,86,77,70,75,71,68,97,86,72,30.05,30.02,29.98,10,9,4,7,4,,0.00,0,,133
2013-8-23,89,78,68,74,70,68,100,90,55,30.09,30.04,29.97,10,4,0,12,2,,0.01,0,Fog,137
2013-8-24,90,80,71,74,71,68,93,78,57,30.08,30.05,30.01,10,10,9,16,7,24,0.00,1,,154
2013-8-25,91,81,71,77,72,69,93,77,57,30.14,30.10,30.06,10,9,6,15,8,22,0.00,0,,172
2013-8-26,93,83,73,74,72,70,91,72,52,30.10,30.04,29.98,10,10,10,14,8,20,0.00,0,,191
2013-8-27,93,82,72,71,69,65,87,67,47,29.99,29.95,29.91,10,10,10,16,10,23,0.00,0,,207
2013-8-28,91,77,64,75,69,63,93,74,50,30.01,29.97,29.94,10,10,5,12,5,16,0.00,0,,204
2013-8-29,93,82,70,78,73,68,97,78,56,29.99,29.95,29.89,10,10,6,10,5,,0.00,0,,154
2013-8-30,98,84,70,75,71,68,93,68,41,29.91,29.85,29.78,10,10,10,12,5,,0.00,0,,223
2013-8-31,88,80,73,76,74,72,97,86,63,29.87,29.81,29.77,10,9,6,9,3,,0.00,0,Rain,351